Group_ship,Cruise,JD_GMT,Date_DDMMYYYY,TIME_HH:MM:SS,Lat_dec_degree,Long_dec_degree,xCO2eq_ppm,xCO2a_ppm,Pres_Equi_hPa,Pres_sealevel_hPa,EqTemp_C,SST(TSG)_C,Sal(TSG)_Permil,Water_flow_l/min,Gasflow_IR_ml/min,Temp_IR_C,Pres_IR_hPa,Ship_heading_true_degree,Ship_speed_knot,Wind_dir_rel_degree,Wind_speed_rel_m/s,fCO2W@SST_uatm,Qcflag_water,fCO2a_uatm,Qcflag_air,dfCO2_uatm,Fluoro_ug/l,Wind_speed_true_m/s,Wind_dir_true_degree,Air_temp_C,Oxygen
AOML_Explorer,Ex0535W,240.973,28082005,23:21:40,25.422,-79.979,409.63,-9,1010.33,1007.29,29.08,29.5,35.8,2.03,73.56,31.76,1010.33,183.7,17.5,322,13.9,397.14,2,-9,9,-9,0.11,8.75,106.7,29.3,234.49
AOML_Explorer,Ex0535W,240.975,28082005,23:24:13,25.409,-79.98,409.43,-9,1010.28,1007.23,29.09,29.42,35.81,2.05,73.4,31.77,1010.28,183.5,17.6,325,13.9,395.68,2,-9,9,-9,0.13,8.23,110.25,29.31,234.82
AOML_Explorer,Ex0535W,240.977,28082005,23:26:46,25.397,-79.98,410.16,-9,1010.24,1007.33,29.06,29.43,35.8,2.06,73.94,31.77,1010.24,183.3,17.6,321,13.9,396.9,2,-9,9,-9,0.12,8.82,105.3,29.3,234.88
AOML_Explorer,Ex0535W,240.979,28082005,23:29:19,25.384,-79.981,410.32,-9,1010.29,1007.27,29.03,29.38,35.8,2.04,74.39,31.77,1010.29,183.4,17.6,321,14.41,396.83,2,-9,9,-9,0.12,9.25,107.17,29.31,235.09
AOML_Explorer,Ex0535W,240.98,28082005,23:31:52,25.372,-79.982,410.14,-9,1010.25,1007.2,29,29.41,35.8,2.04,73.43,31.77,1010.25,182.9,17.7,321,13.9,397.53,2,-9,9,-9,0.11,8.8,104.68,29.29,235.07
AOML_Explorer,Ex0535W,240.982,28082005,23:34:25,25.359,-79.983,409.58,-9,1010.33,1007.28,29,29.39,35.81,2.03,73.76,31.78,1010.33,183,17.7,320,13.9,396.66,2,-9,9,-9,0.12,8.95,103.59,29.3,234.79
AOML_Explorer,Ex0535W,240.984,28082005,23:36:58,25.347,-79.984,409.41,-9,1010.44,1007.22,29.01,29.38,35.81,2.03,73.07,31.78,1010.44,183.4,17.8,322,14.93,396.31,2,-9,9,-9,0.13,9.48,109.72,29.3,234.87
AOML_Explorer,Ex0535W,240.986,28082005,23:39:31,25.334,-79.985,409.27,-9,1010.34,1007.25,28.99,29.35,35.81,2.06,73.55,31.78,1010.34,182.8,17.9,322,14.93,396.02,2,-9,9,-9,0.12,9.37,109.56,29.28,234.86
AOML_Explorer,Ex0535W,240.988,28082005,23:42:04,25.321,-79.986,408.83,-9,1010.34,1007.29,28.97,29.35,35.81,2.03,73.68,31.78,1010.34,183.5,17.9,323,14.41,395.89,2,-9,9,-9,0.12,8.91,108.88,29.29,234.78
AOML_Explorer,Ex0535W,240.989,28082005,23:44:37,25.309,-79.987,408.33,-9,1010.39,1007.34,28.92,29.3,35.84,2.02,73.99,31.78,1010.39,183.3,17.9,325,14.41,395.38,2,-9,9,-9,0.12,8.59,111.32,29.32,234.66
AOML_Explorer,Ex0535W,240.991,28082005,23:47:10,25.296,-79.987,407.49,-9,1010.53,1007.41,28.94,29.31,35.85,2.04,73.17,31.78,1010.53,183.4,17.9,324,14.93,394.5,2,-9,9,-9,0.11,9.18,111.95,29.31,234.41
AOML_Explorer,Ex0535W,240.993,28082005,23:49:43,25.283,-79.988,406.88,-9,1010.52,1007.44,28.91,29.25,35.88,2.02,72.96,31.78,1010.52,183.3,17.9,326,14.41,393.56,2,-9,9,-9,0.13,8.47,112.38,29.34,234.19
AOML_Explorer,Ex0535W,240.995,28082005,23:52:16,25.271,-79.989,406.16,-9,1010.55,1007.51,28.91,29.35,35.91,2.02,72.88,31.78,1010.55,183.1,17.9,323,14.41,394.24,2,-9,9,-9,0.11,8.86,108.77,29.3,233.59
AOML_Explorer,Ex0535W,240.996,28082005,23:54:49,25.258,-79.99,405.28,-9,1010.52,1007.37,28.89,29.41,35.89,2.01,73.41,31.78,1010.52,183.2,17.9,324,14.93,394.52,2,-9,9,-9,0.12,9.11,112.24,29.35,233.51
AOML_Explorer,Ex0535W,240.998,28082005,23:57:22,25.245,-79.991,403.32,-9,1010.58,1007.38,28.98,29.34,35.91,2,73.77,31.74,1010.58,182.7,17.9,322,14.41,390.38,2,-9,9,-9,0.14,8.99,107.5,29.33,233.95
AOML_Explorer,Ex0535W,241,28082005,23:59:55,25.233,-79.992,404.78,-9,1010.53,1007.6,28.99,29.25,35.93,2.02,73.05,31.73,1010.53,183,18,321,14.41,390.32,2,-9,9,-9,0.12,9.15,106.4,29.3,233.9
AOML_Explorer,Ex0535W,241.012,29082005,0:16:34,25.151,-80.005,402.07,-9,1010.6,1007.51,28.91,29.32,35.95,2.03,74.02,31.79,1010.6,195,17.7,315,14.41,389.98,2,-9,9,-9,0.12,10.23,111.19,29.25,232.14
AOML_Explorer,Ex0535W,241.013,29082005,0:19:07,25.139,-80.01,402.34,-9,1010.67,1007.45,28.92,29.3,35.95,2.05,73.52,31.8,1010.67,198.1,17.7,313,14.41,389.8,2,-9,9,-9,0.11,10.7,111.03,29.25,232.14
AOML_Explorer,Ex0535W,241.015,29082005,0:21:40,25.127,-80.014,402.45,-9,1010.65,1007.66,28.91,29.3,35.95,2.03,73.54,31.81,1010.65,197.9,17.7,310,13.9,390.05,2,-9,9,-9,0.11,10.79,106.06,29.27,232.07
AOML_Explorer,Ex0535W,241.017,29082005,0:24:13,25.115,-80.018,402.16,-9,1010.81,1007.56,28.9,29.31,35.98,2.04,73.55,31.82,1010.81,193.6,17.7,312,14.93,390.03,2,-9,9,-9,0.11,11.23,107.54,29.29,232.01
AOML_Explorer,Ex0535W,241.019,29082005,0:26:46,25.103,-80.02,402.02,-9,1010.86,1007.7,28.92,29.33,35.96,2.03,73.15,31.82,1010.86,187.3,17.8,317,14.41,389.9,2,-9,9,-9,0.11,9.85,105.92,29.31,231.91
AOML_Explorer,Ex0535W,241.02,29082005,0:29:19,25.09,-80.021,402.47,-9,1010.69,1007.57,28.91,29.28,35.98,2.03,73.31,31.83,1010.69,183.6,17.9,316,15.44,389.84,2,-9,9,-9,0.1,10.68,105.2,29.3,231.86
AOML_Explorer,Ex0535W,241.022,29082005,0:31:52,25.077,-80.022,402.49,-9,1010.71,1007.56,28.9,29.32,35.98,2.03,72.85,31.84,1010.71,183.5,17.9,317,15.96,390.55,2,-9,9,-9,0.1,10.92,107.89,29.26,231.69
AOML_Explorer,Ex0535W,241.024,29082005,0:34:25,25.064,-80.023,402.57,-9,1010.9,1007.55,28.93,29.34,35.98,2.03,73.33,31.84,1010.9,183.5,17.9,314,15.44,390.56,2,-9,9,-9,0.11,10.98,102.91,29.3,231.63
AOML_Explorer,Ex0535W,241.026,29082005,0:36:58,25.052,-80.024,402.96,-9,1010.74,1007.58,28.96,29.34,35.97,2.02,73.73,31.84,1010.74,183.5,17.9,315,15.44,390.37,2,-9,9,-9,0.1,10.81,104.09,29.32,231.64
AOML_Explorer,Ex0535W,241.027,29082005,0:39:31,25.039,-80.025,403.1,-9,1010.82,1007.53,28.96,29.36,35.95,2.04,73.43,31.84,1010.82,183.3,18,314,15.44,390.91,2,-9,9,-9,0.11,10.95,102.56,29.31,230.44
AOML_Explorer,Ex0535W,241.029,29082005,0:42:04,25.026,-80.026,402.88,-9,1010.64,1007.44,28.96,29.37,35.93,2.01,73.8,31.85,1010.64,183.5,18,312,15.96,390.56,2,-9,9,-9,0.11,11.69,102.02,29.27,229.41
AOML_Explorer,Ex0535W,241.031,29082005,0:44:37,25.013,-80.027,402.7,-9,1010.68,1007.35,28.97,29.36,35.92,2.04,73.83,31.85,1010.68,183.3,18,311,15.96,390.21,2,-9,9,-9,0.11,11.82,100.89,29.27,228.36
AOML_Explorer,Ex0535W,241.033,29082005,0:47:10,25.001,-80.028,402.3,-9,1010.7,1007.46,28.97,29.41,35.9,2.03,73.35,31.86,1010.7,183.5,18,314,15.96,390.46,2,-9,9,-9,0.11,11.38,104.24,29.3,227.67
AOML_Explorer,Ex0535W,241.035,29082005,0:49:43,24.988,-80.029,401.94,-9,1010.71,1007.47,28.98,29.4,35.89,2.03,73.43,31.86,1010.71,183.4,18,314,16.47,389.96,2,-9,9,-9,0.12,11.81,105.56,29.27,226.98
AOML_Explorer,Ex0535W,241.036,29082005,0:52:16,24.975,-80.03,401.39,-9,1011.03,1007.63,29.01,29.47,35.85,2.01,73.71,31.86,1011.03,183.7,18,311,15.44,390.14,2,-9,9,-9,0.12,11.5,99.17,29.32,226.59
AOML_Explorer,Ex0535W,241.038,29082005,0:54:49,24.963,-80.031,400.84,-9,1010.75,1007.65,29.02,29.49,35.85,2.06,73.52,31.87,1010.75,183.7,18,316,15.96,389.52,2,-9,9,-9,0.12,11.08,106.51,29.3,226.21
AOML_Explorer,Ex0535W,241.04,29082005,0:57:22,24.95,-80.032,400.25,-9,1010.84,1007.38,29.07,29.5,35.84,2.06,73.04,31.87,1010.84,184,18,312,16.47,388.44,2,-9,9,-9,0.11,12.2,103.29,29.31,226.36
AOML_Explorer,Ex0535W,241.042,29082005,0:59:55,24.937,-80.033,399.95,-9,1010.81,1007.46,29.08,29.51,35.83,2.04,73.15,31.88,1010.81,183.9,18,308,16.47,388.06,2,-9,9,-9,0.11,12.85,98.79,29.32,225.97
AOML_Explorer,Ex0535W,241.055,29082005,1:19:07,24.843,-80.055,396.91,-9,1010.87,1007.65,29.1,29.51,35.83,2.04,73.59,31.97,1010.87,210.4,18.2,303,14.93,384.92,2,-9,9,-9,0.13,12.91,112.68,29.33,223.88
AOML_Explorer,Ex0535W,241.057,29082005,1:21:40,24.833,-80.063,397.34,-9,1010.87,1007.6,29.11,29.5,35.82,2.03,73,31.98,1010.87,215,18.3,298,15.44,385.04,2,-9,9,-9,0.12,14.29,113.43,29.3,224.06
AOML_Explorer,Ex0535W,241.058,29082005,1:24:13,24.822,-80.071,397.65,-9,1011.31,1007.54,29.09,29.53,35.82,2.04,73.02,31.99,1011.31,215.2,18.2,301,15.96,386.07,2,-9,9,-9,0.11,14.21,117.34,29.32,223.58
AOML_Explorer,Ex0535W,241.06,29082005,1:26:46,24.811,-80.079,397.65,-9,1011.15,1007.63,29.1,29.54,35.85,2.05,73.4,31.99,1011.15,215,18.2,299,14.93,386.17,2,-9,9,-9,0.11,13.72,113.08,29.3,223.74
AOML_Explorer,Ex0535W,241.062,29082005,1:29:19,24.801,-80.087,397.93,-9,1010.92,1007.54,29.13,29.53,35.87,2.05,72.21,32,1010.92,214.6,18.1,300,15.44,385.82,2,-9,9,-9,0.13,13.89,115.44,29.34,224.11
AOML_Explorer,Ex0535W,241.064,29082005,1:31:52,24.79,-80.096,398.64,-9,1011.01,1007.59,29.12,29.5,35.89,2.04,73.3,32,1011.01,215.1,18.2,299,14.93,386.14,2,-9,9,-9,0.12,13.73,113.22,29.33,223.94
AOML_Explorer,Ex0535W,241.066,29082005,1:34:25,24.78,-80.104,399.17,-9,1010.98,1007.6,29.11,29.5,35.89,2.04,72.71,32.01,1010.98,219,18.3,293,15.44,386.72,2,-9,9,-9,0.12,15.04,113.35,29.35,224.5
AOML_Explorer,Ex0535W,241.067,29082005,1:36:58,24.77,-80.113,399.44,-9,1011.1,1007.71,29.09,29.49,35.9,2.02,73.45,32.02,1011.1,221.6,18.4,296,15.44,387.23,2,-9,9,-9,0.11,14.73,117.46,29.38,224.76
AOML_Explorer,Ex0535W,241.069,29082005,1:39:31,24.761,-80.123,399.84,-9,1011.02,1007.62,29.08,29.45,35.93,2.04,72.98,32.02,1011.02,226.3,18.5,293,14.93,387.14,2,-9,9,-9,0.11,14.82,118.26,29.37,225
AOML_Explorer,Ex0535W,241.071,29082005,1:42:04,24.751,-80.133,400.29,-9,1011.47,1007.63,29.07,29.41,35.94,2.06,73.05,32.03,1011.47,221.7,18.4,295,14.93,387.54,2,-9,9,-9,0.12,14.42,115.69,29.43,225.5
AOML_Explorer,Ex0535W,241.073,29082005,1:44:37,24.741,-80.143,401.02,-9,1011.35,1007.68,29.03,29.34,35.97,2.03,73.3,32.03,1011.35,222,18.6,293,15.96,387.77,2,-9,9,-9,0.15,15.62,116.36,29.42,225.71
AOML_Explorer,Ex0535W,241.074,29082005,1:47:10,24.732,-80.153,401.62,-9,1010.99,1007.74,28.98,29.34,35.97,2.04,72.71,32.03,1010.99,222.4,18.6,295,15.96,388.78,2,-9,9,-9,0.12,15.32,118.22,29.42,226.15
AOML_Explorer,Ex0535W,241.076,29082005,1:49:43,24.722,-80.163,401.72,-9,1011.12,1007.59,28.94,29.36,35.98,2.03,72.85,32.03,1011.12,222.5,18.6,293,15.96,389.93,2,-9,9,-9,0.11,15.61,116.91,29.42,226.17
AOML_Explorer,Ex0535W,241.078,29082005,1:52:16,24.712,-80.173,401.64,-9,1011.15,1007.7,28.95,29.38,36,2.04,72.64,32.03,1011.15,222.2,18.7,297,16.47,389.9,2,-9,9,-9,0.12,15.33,121.2,29.39,225.86
AOML_Explorer,Ex0535W,241.08,29082005,1:54:49,24.702,-80.182,401.89,-9,1011.02,1007.89,28.97,29.36,35.99,2.04,72.71,32.03,1011.02,222.1,18.6,297,14.93,389.6,2,-9,9,-9,0.11,14.1,117.43,29.43,225.88
AOML_Explorer,Ex0535W,241.082,29082005,1:57:22,24.693,-80.192,402.05,-9,1011.28,1007.81,28.97,29.36,36,2.04,73.06,32.03,1011.28,222.4,18.7,299,15.44,389.81,2,-9,9,-9,0.14,14.22,120.51,29.44,225.64
AOML_Explorer,Ex0535W,241.083,29082005,1:59:55,24.683,-80.202,402.28,-9,1011.38,1007.94,28.96,29.37,36.01,2.02,72.65,32.03,1011.38,222.1,18.7,299,15.96,390.36,2,-9,9,-9,0.11,14.56,121.7,29.44,225.48
AOML_Explorer,Ex0535W,241.097,29082005,2:19:07,24.605,-80.27,401.64,-9,1011.29,1007.75,28.93,29.35,36.03,2.04,73.36,32.07,1011.29,225.7,18.8,295,15.44,389.83,2,-9,9,-9,0.1,14.75,120.83,29.42,230.26
AOML_Explorer,Ex0535W,241.098,29082005,2:21:40,24.596,-80.281,402.66,-9,1011.44,1007.93,28.94,29.33,36.03,2.06,73.13,32.07,1011.44,231.9,18.9,290,14.41,390.57,2,-9,9,-9,0.1,14.92,119.64,29.41,230.29
AOML_Explorer,Ex0535W,241.1,29082005,2:24:13,24.588,-80.293,403.32,-9,1011.36,1008.04,28.92,29.3,36.04,2.03,72.91,32.07,1011.36,236.1,19,297,15.44,390.97,2,-9,9,-9,0.11,14.65,131.49,29.38,230.4
AOML_Explorer,Ex0535W,241.102,29082005,2:26:46,24.581,-80.306,403.55,-9,1011.34,1007.82,28.9,29.28,36.04,2.05,73.13,32.07,1011.34,235.8,18.9,290,15.44,391.25,2,-9,9,-9,0.11,15.81,125.6,29.41,230.39
AOML_Explorer,Ex0535W,241.104,29082005,2:29:19,24.573,-80.318,403.61,-9,1011.02,1007.86,28.89,29.27,36.04,2.05,72.78,32.06,1011.02,235.7,19,289,14.93,391.22,2,-9,9,-9,0.11,15.57,123.47,29.42,230.49
AOML_Explorer,Ex0535W,241.105,29082005,2:31:52,24.565,-80.33,403.67,-9,1011.1,1007.55,28.88,29.25,36.04,1.99,73.22,32.06,1011.1,235.5,19.1,290,16.47,391.16,2,-9,9,-9,0.12,16.63,127.31,29.45,230.34
AOML_Explorer,Ex0535W,241.107,29082005,2:34:25,24.558,-80.342,403.85,-9,1011.22,1007.71,28.86,29.28,36.04,2,72.9,32.06,1011.22,235.3,19.1,293,15.96,392.07,2,-9,9,-9,0.11,15.65,128.97,29.43,230.47
AOML_Explorer,Ex0535W,241.109,29082005,2:36:58,24.55,-80.355,403.65,-9,1010.91,1007.75,28.87,29.27,36.05,2.01,72.73,32.05,1010.91,235.9,19.1,287,15.96,391.55,2,-9,9,-9,0.12,16.71,124.15,29.42,230.55
AOML_Explorer,Ex0535W,241.111,29082005,2:39:31,24.543,-80.367,403.6,-9,1011.09,1007.39,28.87,29.29,36.04,2,72.55,32.05,1011.09,235.6,19,291,16.99,391.81,2,-9,9,-9,0.12,16.89,129.34,29.42,230.65
AOML_Explorer,Ex0535W,241.113,29082005,2:42:04,24.535,-80.379,403.53,-9,1010.92,1006.87,28.86,29.35,36.05,1.98,73.01,32.05,1010.92,235.9,18.9,303,22.13,392.68,2,-9,9,-9,0.11,19.47,148.44,28.6,230.56
AOML_Explorer,Ex0535W,241.114,29082005,2:44:37,24.528,-80.391,403.08,-9,1010.84,1007.12,28.9,29.33,36.06,1.99,72.62,32.04,1010.84,235.4,18.7,301,21.62,391.3,2,-9,9,-9,0.11,19.41,145.05,28.29,230.77
AOML_Explorer,Ex0535W,241.116,29082005,2:47:10,24.519,-80.402,403.48,-9,1011.19,1006.93,28.92,29.37,36.05,1.99,72.52,32.04,1011.19,228.7,18.5,308,22.65,392,2,-9,9,-9,0.11,18.99,148.33,27.94,230.61
AOML_Explorer,Ex0535W,241.118,29082005,2:49:43,24.51,-80.413,403.25,-9,1011.04,1007.22,28.93,29.39,36.05,1.97,73.3,32.04,1011.04,227.3,18.6,308,21.1,391.95,2,-9,9,-9,0.11,17.35,146.43,27.9,230.42
AOML_Explorer,Ex0535W,241.12,29082005,2:52:16,24.502,-80.424,403.03,-9,1010.82,1007.21,28.96,29.39,36.05,1.98,73.52,32.03,1010.82,228,18.6,307,20.07,391.13,2,-9,9,-9,0.11,16.59,144.55,28.06,230.32
AOML_Explorer,Ex0535W,241.121,29082005,2:54:49,24.493,-80.435,403.05,-9,1011.01,1007.41,28.97,29.37,36.04,1.97,73,32.03,1011.01,230.6,18.6,302,19.04,390.74,2,-9,9,-9,0.12,16.42,140.75,28.04,230.31
AOML_Explorer,Ex0535W,241.123,29082005,2:57:22,24.485,-80.447,403.12,-9,1010.96,1007.21,28.97,29.37,36.04,1.98,72.32,32.02,1010.96,231.9,18.5,306,20.07,390.95,2,-9,9,-9,0.11,16.85,146.95,27.92,230.35
AOML_Explorer,Ex0535W,241.125,29082005,2:59:55,24.477,-80.458,403.2,-9,1011.51,1007.49,28.96,29.35,36.04,2.01,72.65,32.02,1011.51,232.6,18.5,305,19.56,391.11,2,-9,9,-9,0.12,16.54,145.95,27.92,230.2
AOML_Explorer,Ex0535W,241.137,29082005,3:16:34,24.425,-80.533,401.4,-9,1011.44,1007.94,28.88,29.28,36.04,1.99,73.74,32.04,1011.44,231.5,18.6,301,18.01,389.49,2,-9,9,-9,0.12,15.69,138.94,27.96,230.54
AOML_Explorer,Ex0535W,241.138,29082005,3:19:07,24.417,-80.544,402.07,-9,1011.48,1007.96,28.88,29.26,36.04,2.01,73.76,32.04,1011.48,231.9,18.7,307,18.01,389.87,2,-9,9,-9,0.12,14.72,145.17,28.04,230.62
AOML_Explorer,Ex0535W,241.14,29082005,3:21:40,24.409,-80.556,402.65,-9,1011.72,1007.95,28.87,29.25,36.04,2.01,73.17,32.04,1011.72,234.2,18.6,304,18.53,390.53,2,-9,9,-9,0.13,15.6,145.8,28.01,230.57
AOML_Explorer,Ex0535W,241.142,29082005,3:24:13,24.401,-80.568,402.58,-9,1011.66,1007.94,28.86,29.22,36.04,1.97,73.21,32.03,1011.66,239.9,18.6,301,17.5,390.3,2,-9,9,-9,0.11,15.33,145.9,28.01,230.61
AOML_Explorer,Ex0535W,241.144,29082005,3:26:46,24.395,-80.581,402.75,-9,1011.63,1007.95,28.83,29.2,36.04,1.98,73.17,32.03,1011.63,243.8,18.7,296,16.99,390.48,2,-9,9,-9,0.14,15.86,143.43,28,230.67
AOML_Explorer,Ex0535W,241.145,29082005,3:29:19,24.39,-80.594,402.76,-9,1011.82,1008.06,28.82,29.21,36.04,1.99,73.43,32.02,1011.82,245.8,18.7,299,16.99,390.95,2,-9,9,-9,0.13,15.39,147.82,28.01,230.56
AOML_Explorer,Ex0535W,241.147,29082005,3:31:52,24.384,-80.608,402.73,-9,1011.76,1008.46,28.81,29.18,36.05,2.01,72.99,32.02,1011.76,246.3,18.6,298,16.47,390.56,2,-9,9,-9,0.13,15.18,146.07,28,230.6
AOML_Explorer,Ex0535W,241.149,29082005,3:34:25,24.379,-80.621,402.81,-9,1011.71,1008.16,28.81,29.17,36.05,1.99,73.23,32.02,1011.71,245.7,18.7,297,16.47,390.59,2,-9,9,-9,0.13,15.25,145.11,28.02,230.68
AOML_Explorer,Ex0535W,241.151,29082005,3:36:58,24.373,-80.634,402.72,-9,1011.6,1008.03,28.79,29.15,36.04,2.01,72.58,32.01,1011.6,245.2,18.7,301,16.99,390.41,2,-9,9,-9,0.12,15.02,149.41,28.05,230.73
AOML_Explorer,Ex0535W,241.152,29082005,3:39:31,24.368,-80.648,402.61,-9,1011.75,1008.09,28.78,29.22,36.04,2.01,73.76,32.01,1011.75,246.9,18.8,299,15.96,391.5,2,-9,9,-9,0.13,14.45,147.06,28.16,230.6
AOML_Explorer,Ex0535W,241.154,29082005,3:42:04,24.363,-80.661,402.45,-9,1011.54,1008.12,28.8,29.27,36.06,2.01,73.51,32,1011.54,245.8,18.8,300,16.99,391.59,2,-9,9,-9,0.13,15.12,149.28,28.06,230.45
AOML_Explorer,Ex0535W,241.156,29082005,3:44:37,24.357,-80.675,402.79,-9,1011.51,1008.06,28.84,29.28,36.06,1.99,73.78,32,1011.51,246.3,18.9,299,16.99,391.53,2,-9,9,-9,0.13,15.3,148.54,28.08,230.21
AOML_Explorer,Ex0535W,241.158,29082005,3:47:10,24.352,-80.688,402.99,-9,1011.49,1008.17,28.87,29.28,36.04,1.98,73.43,31.99,1011.49,247.4,18.9,298,15.44,391.19,2,-9,9,-9,0.12,14.21,145.12,28.08,230.18
AOML_Explorer,Ex0535W,241.16,29082005,3:49:43,24.347,-80.702,402.93,-9,1011.57,1007.94,28.89,29.27,36.03,1.99,73.39,31.99,1011.57,246.9,18.8,300,16.47,390.77,2,-9,9,-9,0.13,14.69,149.01,28.12,230.11
AOML_Explorer,Ex0535W,241.161,29082005,3:52:16,24.342,-80.715,403.16,-9,1011.38,1008.3,28.89,29.27,36.02,2.01,73.5,31.98,1011.38,247,18.8,302,15.96,390.84,2,-9,9,-9,0.13,13.92,150.13,28.07,229.93
AOML_Explorer,Ex0535W,241.163,29082005,3:54:49,24.337,-80.729,403.29,-9,1011.51,1008.06,28.88,29.25,36.02,2,73.38,31.98,1011.51,246.6,18.8,304,14.93,390.99,2,-9,9,-9,0.15,12.76,148.84,28.1,230.16
AOML_Explorer,Ex0535W,241.165,29082005,3:57:22,24.331,-80.742,403.29,-9,1011.6,1008.07,28.87,29.25,36.01,2.01,73.4,31.98,1011.6,246.6,18.8,294,14.93,391.05,2,-9,9,-9,0.14,14.37,140.45,28.09,230.24
AOML_Explorer,Ex0535W,241.167,29082005,3:59:55,24.326,-80.756,403.17,-9,1011.59,1008.12,28.86,29.26,36.02,1.99,73.18,31.97,1011.59,246.8,18.8,300,14.93,391.3,2,-9,9,-9,0.13,13.44,145.51,28.07,230.22
AOML_Explorer,Ex0535W,241.18,29082005,4:19:07,24.286,-80.857,403.53,-9,1011.28,1007.88,28.78,29.16,36.07,1.99,73.44,32.02,1011.28,247.1,18.8,301,13.9,391.41,2,-9,9,-9,0.13,12.29,144.42,28.16,230.15
AOML_Explorer,Ex0535W,241.182,29082005,4:21:40,24.281,-80.87,404.05,-9,1011.12,1007.75,28.79,29.19,36.05,1.99,73.21,32.02,1011.12,247.3,19,297,13.38,392.02,2,-9,9,-9,0.13,12.68,139.13,28.23,230.36
AOML_Explorer,Ex0535W,241.183,29082005,4:24:13,24.276,-80.884,404.08,-9,1011.22,1007.91,28.79,29.18,36.05,1.99,73.28,32.03,1011.22,247.3,19,297,13.38,391.99,2,-9,9,-9,0.14,12.69,139.07,28.32,230.48
AOML_Explorer,Ex0535W,241.185,29082005,4:26:46,24.271,-80.898,403.23,-9,1011.06,1007.77,28.81,29.17,36.04,1.98,73.19,32.02,1011.06,246.9,18.9,300,12.35,390.61,2,-9,9,-9,0.13,11.41,137.9,28.36,230.61
AOML_Explorer,Ex0535W,241.187,29082005,4:29:19,24.266,-80.911,402.91,-9,1011.09,1007.88,28.81,29.17,36.02,1.98,72.95,32.03,1011.09,247.4,18.9,295,12.87,390.32,2,-9,9,-9,0.13,12.6,136.32,28.41,230.81
AOML_Explorer,Ex0535W,241.189,29082005,4:31:52,24.26,-80.925,402.56,-9,1011.08,1007.81,28.8,29.13,36,2.02,72.8,32.03,1011.08,246.6,18.9,299,13.38,389.51,2,-9,9,-9,0.14,12.28,140.6,28.48,230.75
AOML_Explorer,Ex0535W,241.191,29082005,4:34:25,24.255,-80.938,402.49,-9,1011.01,1007.8,28.77,29.2,36,2.03,72.29,32.03,1011.01,247,18.9,299,13.9,390.84,2,-9,9,-9,0.14,12.69,142.4,28.49,230.95
AOML_Explorer,Ex0535W,241.192,29082005,4:36:58,24.25,-80.952,401.95,-9,1011.18,1007.87,28.77,29.14,35.99,2,72.5,32.03,1011.18,247,18.8,302,13.38,389.73,2,-9,9,-9,0.14,11.79,143.41,28.59,238.21
AOML_Explorer,Ex0535W,241.194,29082005,4:39:31,24.245,-80.965,402.07,-9,1011.13,1007.79,28.79,29.19,35.99,1.98,72.38,32.03,1011.13,247.2,18.7,302,13.38,390.08,2,-9,9,-9,0.13,11.85,143.51,28.6,234.33
AOML_Explorer,Ex0535W,241.196,29082005,4:42:04,24.24,-80.978,402.05,-9,1010.94,1007.77,28.79,29.19,35.99,1.98,72.42,32.03,1010.94,246.7,18.7,302,13.38,390.03,2,-9,9,-9,0.13,11.75,143.41,28.55,232.76
AOML_Explorer,Ex0535W,241.198,29082005,4:44:37,24.234,-80.992,401.84,-9,1010.99,1007.84,28.81,29.19,35.99,2,72.89,32.03,1010.99,246.8,18.6,303,13.9,389.63,2,-9,9,-9,0.14,11.95,146.41,28.59,232.17
AOML_Explorer,Ex0535W,241.199,29082005,4:47:10,24.229,-81.005,401.78,-9,1011.04,1007.76,28.81,29.24,35.98,2,72.16,32.03,1011.04,246.7,18.5,307,14.93,390.17,2,-9,9,-9,0.13,12.04,153.5,28.71,231.95
AOML_Explorer,Ex0535W,241.201,29082005,4:49:43,24.224,-81.018,401.31,-9,1010.94,1007.58,28.83,29.25,35.99,1.98,73.4,32.03,1010.94,246.5,18.5,308,15.44,389.6,2,-9,9,-9,0.13,12.29,155.71,28.8,231.78
AOML_Explorer,Ex0535W,241.203,29082005,4:52:16,24.219,-81.031,401.23,-9,1011.09,1007.28,28.86,29.25,35.99,2.01,72.95,32.03,1011.09,246.7,18.4,301,14.93,389.18,2,-9,9,-9,0.13,13.05,148.04,28.78,231.8
AOML_Explorer,Ex0535W,241.205,29082005,4:54:49,24.214,-81.045,401.01,-9,1010.97,1007.51,28.87,29.27,35.99,2.01,72.96,32.03,1010.97,246.9,18.4,305,14.93,389.07,2,-9,9,-9,0.13,12.43,151.66,28.74,231.62
AOML_Explorer,Ex0535W,241.207,29082005,4:57:22,24.209,-81.058,401,-9,1010.95,1007.34,28.87,29.3,35.99,1.97,73.11,32.03,1010.95,247.1,18.2,304,15.44,389.38,2,-9,9,-9,0.13,12.94,152.92,28.75,231.6
AOML_Explorer,Ex0535W,241.208,29082005,4:59:55,24.203,-81.071,400.98,-9,1010.94,1007.32,28.89,29.29,35.99,2.01,72.78,32.03,1010.94,246.7,18.1,303,15.44,388.9,2,-9,9,-9,0.13,13.12,151.81,28.8,231.82
AOML_Explorer,Ex0535W,241.222,29082005,5:19:07,24.165,-81.168,399.51,-9,1010.63,1007.43,28.92,29.32,35.97,2.02,72.82,32.09,1010.63,245.9,18,298,15.44,387.34,2,-9,9,-9,0.13,13.78,147.39,28.52,231.91
AOML_Explorer,Ex0535W,241.223,29082005,5:21:40,24.16,-81.181,399.78,-9,1010.52,1006.84,28.92,29.31,35.94,1.95,73.2,32.09,1010.52,247.3,18.1,297,17.5,387.42,2,-9,9,-9,0.14,15.83,151.36,28.65,231.8
AOML_Explorer,Ex0535W,241.225,29082005,5:24:13,24.155,-81.194,399.68,-9,1010.56,1007.08,28.92,29.32,35.94,1.97,72.68,32.09,1010.56,246.6,18.1,299,18.01,387.47,2,-9,9,-9,0.14,15.89,153.71,28.77,232.1
AOML_Explorer,Ex0535W,241.227,29082005,5:26:46,24.15,-81.207,399.5,-9,1010.47,1007.05,28.93,29.31,35.93,2,72.82,32.09,1010.47,246.6,18.2,306,16.47,386.98,2,-9,9,-9,0.14,13.42,157.36,28.75,232.26
AOML_Explorer,Ex0535W,241.229,29082005,5:29:19,24.145,-81.22,399.37,-9,1010.3,1007.17,28.93,29.31,35.93,2,73.11,32.09,1010.3,246.8,18.1,307,18.01,386.79,2,-9,9,-9,0.15,14.6,162.08,28.68,232.31
AOML_Explorer,Ex0535W,241.23,29082005,5:31:52,24.139,-81.233,399.3,-9,1010.49,1007.16,28.92,29.32,35.92,1.96,72.89,32.09,1010.49,246.5,18.1,308,17.5,387.14,2,-9,9,-9,0.14,13.97,161.88,28.63,232.28
AOML_Explorer,Ex0535W,241.232,29082005,5:34:25,24.134,-81.246,399.24,-9,1010.67,1006.85,28.91,29.32,35.92,1.98,73.14,32.09,1010.67,246.3,18.3,305,17.5,387.16,2,-9,9,-9,0.14,14.44,158.18,28.57,232.41
AOML_Explorer,Ex0535W,241.234,29082005,5:36:58,24.129,-81.259,399.18,-9,1010.63,1006.87,28.92,29.33,35.9,2,72.72,32.09,1010.63,246.5,18.2,304,17.5,387.05,2,-9,9,-9,0.13,14.62,157.58,28.56,232.36
AOML_Explorer,Ex0535W,241.236,29082005,5:39:31,24.124,-81.272,398.93,-9,1010.58,1006.71,28.93,29.37,35.89,1.97,72.45,32.09,1010.58,247,18.1,301,18.53,387.24,2,-9,9,-9,0.13,16.01,157.02,28.47,232.36
AOML_Explorer,Ex0535W,241.238,29082005,5:42:04,24.119,-81.284,398.63,-9,1010.68,1006.95,28.94,29.36,35.89,1.96,72.47,32.09,1010.68,246.7,18.1,298,19.04,386.64,2,-9,9,-9,0.15,16.93,154.75,28.43,232.22
AOML_Explorer,Ex0535W,241.239,29082005,5:44:37,24.114,-81.298,398.72,-9,1010.41,1007.33,28.97,29.35,35.87,2,72.65,32.08,1010.41,248.3,18.1,301,19.04,386.14,2,-9,9,-9,0.16,16.38,159.75,28.43,232.14
AOML_Explorer,Ex0535W,241.241,29082005,5:47:10,24.11,-81.311,398.53,-9,1010.55,1006.79,28.96,29.36,35.87,1.99,72.48,32.08,1010.55,253.7,18,293,18.01,386.31,2,-9,9,-9,0.14,16.99,154.55,28.33,232.43
AOML_Explorer,Ex0535W,241.243,29082005,5:49:43,24.107,-81.325,398.12,-9,1010.52,1006.6,28.96,29.36,35.87,1.99,72.54,32.08,1010.52,258.5,18.6,297,18.53,385.98,2,-9,9,-9,0.13,16.89,162.55,28.29,232.3
AOML_Explorer,Ex0535W,241.245,29082005,5:52:16,24.104,-81.339,397.88,-9,1010.36,1006.73,28.97,29.38,35.85,2,72.28,32.08,1010.36,257.1,18.2,295,18.53,385.73,2,-9,9,-9,0.13,17.28,159.44,28.29,232.22
AOML_Explorer,Ex0535W,241.246,29082005,5:54:49,24.101,-81.352,397.72,-9,1010.51,1006.61,28.96,29.39,35.85,1.96,72.58,32.08,1010.51,253,18.3,298,18.53,385.84,2,-9,9,-9,0.14,16.84,157.84,28.23,231.99
AOML_Explorer,Ex0535W,241.248,29082005,5:57:22,24.096,-81.366,397.63,-9,1010.51,1006.85,28.98,29.42,35.84,1.98,73,32.08,1010.51,251.5,18.4,295,16.99,385.96,2,-9,9,-9,0.14,15.8,151.69,28.2,232.17